When you browse on this site, cookies collect data to enhance your experience and personalize the content and advertising you see.
Visit our Privacy Policy to learn more. By continuing to use the site, you agree to this use of cookies and data.
  • In Portugal
  • List of Countries
  • For 7 days
  • Water Temperature
  • Satellite Maps
  • Weather Map
  • Weather Widgets
  • user-avatar
    Login

    Hourly Weather San Luis

    Today, 22 March, Friday

    Time Temperature Precipitation Wind Pressure Humidity
    00:00 +15°C° 0 mm 7 mps 698 mmHg 59%
    01:00 +15°C° 0 mm 6 mps 699 mmHg 60%
    02:00 +14°C° 0 mm 6 mps 698 mmHg 61%
    03:00 +14°C° 0 mm 5 mps 699 mmHg 63%
    04:00 +14°C° 0 mm 4 mps 699 mmHg 66%
    05:00 +13°C° 0 mm 4 mps 699 mmHg 68%
    06:00 +16°C° 0 mm 3 mps 699 mmHg 63%
    07:00 +17°C° 0 mm 3 mps 700 mmHg 59%
    08:00 +18°C° 0 mm 3 mps 701 mmHg 51%
    09:00 +20°C° 0 mm 2 mps 701 mmHg 46%
    10:00 +23°C° 0 mm 2 mps 701 mmHg 41%
    11:00 +25°C° 0 mm 1 mps 702 mmHg 35%
    12:00 +26°C° 0 mm 1 mps 701 mmHg 33%
    13:00 +27°C° 0 mm 1 mps 701 mmHg 30%
    14:00 +28°C° 0 mm 1 mps 701 mmHg 28%
    15:00 +28°C° 0 mm 1 mps 700 mmHg 28%
    16:00 +28°C° 0 mm 1 mps 700 mmHg 28%
    17:00 +28°C° 0 mm 1 mps 699 mmHg 28%
    18:00 +25°C° 0 mm 2 mps 699 mmHg 35%
    19:00 +23°C° 0 mm 2 mps 699 mmHg 42%
    20:00 +19°C° 0 mm 3 mps 698 mmHg 50%
    21:00 +19°C° 0 mm 3 mps 699 mmHg 52%
    22:00 +19°C° 0 mm 3 mps 699 mmHg 53%
    23:00 +19°C° 0 mm 3 mps 699 mmHg 55%

    Tomorrow, 23 March, Saturday

    Time Temperature Precipitation Wind Pressure Humidity
    00:00 +19°C° 0 mm 4 mps 699 mmHg 55%
    01:00 +19°C° 0 mm 5 mps 699 mmHg 56%
    02:00 +19°C° 0 mm 6 mps 698 mmHg 56%
    03:00 +19°C° 0 mm 6 mps 698 mmHg 57%
    04:00 +19°C° 0 mm 6 mps 698 mmHg 59%
    05:00 +18°C° 0 mm 7 mps 698 mmHg 61%
    06:00 +20°C° 0 mm 7 mps 698 mmHg 58%
    07:00 +21°C° 0 mm 8 mps 698 mmHg 56%
    08:00 +22°C° 0 mm 8 mps 698 mmHg 53%
    09:00 +24°C° 0 mm 8 mps 699 mmHg 47%
    10:00 +27°C° 0 mm 8 mps 699 mmHg 40%
    11:00 +29°C° 0 mm 7 mps 699 mmHg 34%
    12:00 +30°C° 0 mm 6 mps 699 mmHg 31%
    13:00 +32°C° 0 mm 5 mps 699 mmHg 29%
    14:00 +33°C° 0 mm 4 mps 698 mmHg 27%
    15:00 +31°C° 0 mm 3 mps 698 mmHg 27%
    16:00 +31°C° 0 mm 2 mps 698 mmHg 27%
    17:00 +31°C° 0 mm 2 mps 698 mmHg 28%
    18:00 +28°C° 0 mm 2 mps 698 mmHg 36%
    19:00 +25°C° 0 mm 1 mps 698 mmHg 44%
    20:00 +22°C° 0 mm 1 mps 698 mmHg 52%
    21:00 +21°C° 0 mm 2 mps 698 mmHg 49%
    22:00 +20°C° 0 mm 2 mps 699 mmHg 47%
    23:00 +20°C° 0 mm 3 mps 699 mmHg 44%

    Day after tomorrow, 24 March, Sunday

    Time Temperature Precipitation Wind Pressure Humidity
    00:00 +20°C° 0 mm 3 mps 699 mmHg 43%
    01:00 +19°C° 0 mm 3 mps 700 mmHg 43%
    02:00 +19°C° 0 mm 3 mps 700 mmHg 42%
    03:00 +19°C° 0 mm 3 mps 700 mmHg 43%
    04:00 +18°C° 0 mm 3 mps 700 mmHg 44%
    05:00 +18°C° 0 mm 4 mps 700 mmHg 45%
    06:00 +19°C° 0 mm 4 mps 701 mmHg 43%
    07:00 +19°C° 0 mm 5 mps 702 mmHg 41%
    08:00 +20°C° 0 mm 6 mps 702 mmHg 39%
    09:00 +21°C° 0 mm 6 mps 703 mmHg 37%
    10:00 +23°C° 0 mm 6 mps 703 mmHg 34%
    11:00 +26°C° 0 mm 6 mps 704 mmHg 31%
    12:00 +27°C° 0 mm 5 mps 703 mmHg 30%
    13:00 +28°C° 0 mm 5 mps 703 mmHg 30%
    14:00 +29°C° 0 mm 5 mps 702 mmHg 29%
    15:00 +28°C° 0 mm 6 mps 701 mmHg 30%
    16:00 +27°C° 0 mm 6 mps 701 mmHg 31%
    17:00 +27°C° 0 mm 7 mps 700 mmHg 32%
    18:00 +24°C° 0 mm 7 mps 700 mmHg 35%
    19:00 +22°C° 0 mm 7 mps 700 mmHg 37%
    20:00 +20°C° 0 mm 7 mps 700 mmHg 40%
    21:00 +20°C° 0 mm 6 mps 700 mmHg 40%
    22:00 +20°C° 0 mm 6 mps 700 mmHg 41%
    23:00 +19°C° 0 mm 6 mps 701 mmHg 41%

    25 March, Monday

    Time Temperature Precipitation Wind Pressure Humidity
    00:00 +19°C° 0 mm 6 mps 701 mmHg 42%
    01:00 +20°C° 0 mm 5 mps 700 mmHg 42%
    02:00 +20°C° 0 mm 5 mps 700 mmHg 43%
    03:00 +19°C° 0.1 mm 5 mps 700 mmHg 46%
    04:00 +19°C° 0.1 mm 5 mps 700 mmHg 49%
    05:00 +18°C° 0.1 mm 4 mps 699 mmHg 52%
    06:00 +19°C° 0.3 mm 4 mps 700 mmHg 54%
    07:00 +19°C° 0.3 mm 4 mps 701 mmHg 56%
    08:00 +20°C° 0.3 mm 4 mps 701 mmHg 58%
    09:00 +21°C° 0.5 mm 4 mps 702 mmHg 57%
    10:00 +22°C° 0.5 mm 3 mps 702 mmHg 56%
    11:00 +24°C° 0.5 mm 3 mps 702 mmHg 55%
    12:00 +24°C° 0.7 mm 3 mps 702 mmHg 57%
    13:00 +22°C° 0.7 mm 3 mps 701 mmHg 59%
    14:00 +22°C° 0.7 mm 3 mps 700 mmHg 61%
    15:00 +21°C° 0.5 mm 4 mps 700 mmHg 65%
    16:00 +20°C° 0.5 mm 4 mps 700 mmHg 69%
    17:00 +20°C° 0.5 mm 5 mps 699 mmHg 72%
    18:00 +19°C° 0.1 mm 6 mps 700 mmHg 75%
    19:00 +17°C° 0.1 mm 6 mps 701 mmHg 78%
    20:00 +16°C° 0.1 mm 6 mps 701 mmHg 81%
    21:00 +16°C° 0.3 mm 6 mps 702 mmHg 80%
    22:00 +16°C° 0.3 mm 6 mps 702 mmHg 79%
    23:00 +15°C° 0.3 mm 5 mps 703 mmHg 79%

    26 March, Tuesday

    Time Temperature Precipitation Wind Pressure Humidity
    00:00 +15°C° 0.4 mm 5 mps 703 mmHg 78%
    01:00 +15°C° 0.4 mm 5 mps 703 mmHg 78%
    02:00 +15°C° 0.4 mm 4 mps 703 mmHg 78%
    03:00 +15°C° 0.1 mm 4 mps 703 mmHg 75%
    04:00 +15°C° 0.1 mm 5 mps 703 mmHg 73%
    05:00 +15°C° 0.1 mm 5 mps 703 mmHg 70%
    06:00 +15°C° 0.1 mm 5 mps 704 mmHg 69%
    07:00 +15°C° 0.1 mm 6 mps 704 mmHg 69%
    08:00 +15°C° 0.1 mm 6 mps 705 mmHg 68%
    09:00 +16°C° 0 mm 6 mps 705 mmHg 64%
    10:00 +19°C° 0 mm 6 mps 705 mmHg 60%
    11:00 +20°C° 0 mm 5 mps 706 mmHg 56%
    12:00 +20°C° 0.1 mm 5 mps 706 mmHg 56%
    13:00 +20°C° 0.1 mm 5 mps 705 mmHg 55%
    14:00 +21°C° 0.1 mm 5 mps 705 mmHg 55%
    15:00 +20°C° 0.1 mm 5 mps 705 mmHg 58%
    16:00 +19°C° 0.1 mm 5 mps 704 mmHg 60%
    17:00 +19°C° 0.1 mm 4 mps 704 mmHg 62%
    18:00 +18°C° 0 mm 4 mps 704 mmHg 64%
    19:00 +17°C° 0 mm 3 mps 705 mmHg 66%
    20:00 +17°C° 0 mm 3 mps 705 mmHg 69%
    21:00 +17°C° 0 mm 3 mps 705 mmHg 70%
    22:00 +16°C° 0 mm 3 mps 705 mmHg 71%
    23:00 +16°C° 0 mm 3 mps 705 mmHg 73%

    27 March, Wednesday

    Time Temperature Precipitation Wind Pressure Humidity
    00:00 +16°C° 0.1 mm 3 mps 705 mmHg 74%
    01:00 +16°C° 0.1 mm 3 mps 705 mmHg 75%
    02:00 +16°C° 0.1 mm 3 mps 705 mmHg 77%
    03:00 +14°C° 0 mm 3 mps 704 mmHg 78%
    04:00 +14°C° 0 mm 3 mps 704 mmHg 80%
    05:00 +13°C° 0 mm 3 mps 704 mmHg 81%
    06:00 +14°C° 0 mm 4 mps 704 mmHg 76%
    07:00 +15°C° 0 mm 4 mps 704 mmHg 70%
    08:00 +17°C° 0 mm 4 mps 705 mmHg 65%
    09:00 +19°C° 0 mm 5 mps 705 mmHg 59%
    10:00 +21°C° 0 mm 5 mps 705 mmHg 53%
    11:00 +22°C° 0 mm 5 mps 705 mmHg 47%
    12:00 +23°C° 0 mm 5 mps 704 mmHg 47%
    13:00 +23°C° 0 mm 5 mps 704 mmHg 47%
    14:00 +25°C° 0 mm 5 mps 703 mmHg 46%
    15:00 +23°C° 0 mm 5 mps 703 mmHg 47%
    16:00 +23°C° 0 mm 5 mps 702 mmHg 48%
    17:00 +23°C° 0 mm 5 mps 702 mmHg 49%
    18:00 +21°C° 0 mm 4 mps 702 mmHg 55%
    19:00 +19°C° 0 mm 3 mps 702 mmHg 62%
    20:00 +18°C° 0 mm 3 mps 702 mmHg 69%
    21:00 +17°C° 0 mm 3 mps 702 mmHg 71%
    22:00 +17°C° 0 mm 3 mps 702 mmHg 74%
    23:00 +17°C° 0 mm 4 mps 702 mmHg 76%
    Show more